Date,TemperatureHighF,TemperatureAvgF,TemperatureLowF,DewpointHighF,DewpointAvgF,DewpointLowF,HumidityHigh,HumidityAvg,HumidityLow,PressureMaxIn,PressureMinIn,WindSpeedMaxMPH,WindSpeedAvgMPH,GustSpeedMaxMPH,PrecipitationSumIn
2013-8-1,63,56,49,47,41,37,82,58,42,0.00,40.00,5,2,9,0.01
2013-8-2,56,52,48,51,47,44,94,84,65,0.00,40.00,4,-152,7,0.01
2013-8-3,61,53,48,51,48,45,97,83,65,0.00,40.00,2,-56,4,0.01
2013-8-4,65,59,52,53,48,43,90,69,56,0.00,40.00,2,-99,8,0.00
2013-8-5,70,62,56,52,46,39,68,56,37,0.00,40.00,3,-198,6,0.00
2013-8-6,74,67,58,39,36,28,48,33,23,0.00,40.00,3,-55,6,0.00
2013-8-7,73,65,59,39,33,24,43,30,23,0.00,40.00,3,-60,5,0.00
2013-8-8,72,64,57,40,35,23,43,34,26,0.00,40.00,3,2,6,0.01
2013-8-9,75,67,56,43,38,27,58,35,25,0.00,40.00,3,-96,9,0.00
2013-8-10,69,64,54,53,47,42,91,56,43,0.00,40.00,4,-67,8,0.02
2013-8-11,65,58,52,57,44,-100,89,68,54,0.00,40.00,4,-180,7,0.02
2013-8-12,70,62,54,45,40,33,68,45,27,0.00,40.00,3,-31,7,0.01
2013-8-13,70,64,57,48,27,-100,52,34,25,0.00,40.00,3,-306,7,0.00
2013-8-14,72,63,59,40,34,27,42,35,26,0.00,40.00,4,-128,6,0.00
2013-8-15,67,59,58,51,37,-100,76,48,41,0.00,40.00,7,-108,10,0.01
2013-8-25,61,54,48,48,38,30,97,57,37,0.00,40.00,5,2,8,0.02
2013-8-26,57,51,45,48,44,42,91,79,66,0.00,40.00,4,-108,7,0.02
2013-8-27,60,53,48,46,44,42,85,73,59,0.00,40.00,6,3,9,0.00
2013-8-28,66,61,56,47,45,44,64,56,46,0.00,40.00,3,2,6,0.00
2013-8-29,62,57,53,51,46,43,85,66,55,0.00,40.00,6,-185,11,0.01
2013-8-30,62,55,49,45,40,32,84,60,34,0.00,40.00,7,3,10,0.01
2013-8-31,66,54,48,42,34,-100,74,51,38,0.00,40.00,2,-76,4,0.00